Voltar ao catálogo

DELTA 1 DEB

AtivoSSO
NORAD 12257·DEBRIS·🇺🇸 United States

Lançado Mar 5, 1978 de Vandenberg Space Force Base

Loading…

Próximas Passagens (próximas 24 horas)

TLE

AtualizadoSource: Space-Track

Época: Sep 13, 2026, 20:57 UTC

1 12257U 78026DA  26256.87309378  .00000292  00000-0  20147-3 0  9996
2 12257  99.3303 215.9888 0101347  33.8299 326.9278 14.04926766328776

Acompanhe DELTA 1 DEB em tempo real com AllMySat

Download on the App Store